STARLINK-32845 (62815 NORAD) Tracking and Keplerian Element Data

This shows tracking and keplerian element data for the satellite.

Feedback or suggestion? Click here.




ElementValue
Catalog62815
NameSTARLINK-32845
Epoch Orbit264
Epoch Day35.25001157
Epoch Year2025
RAAN11.4986
Inclination53.1471
Eccentricity0.0001111
Argument of Perigee71.9538
Mean Anonmoly105.9683
Mean Motion15.85842821
Decay Rate-0.01004677
L11 62815U 25018K 25035.25001157 -.01004677 00000+0 -45046-2 0 9991
L22 62815 53.1471 11.4986 0001111 71.9538 105.9683 15.85842821 2649



Live tracking and technical data element details for STARLINK-32845 (NORAD 62815). STARLINK-32845 can be tracked NOW for your location showing map with azimuth and elevation plus other details from your city location.







IsCatalogInMostPopularTable: catalog: 62815, numindb: 3
Update: records affected: 1



GetName: 62815 STARLINK-32845

Hit Count: updated at: Sun, 09 Feb 2025 14:48:20 GMT